Hourly Weather Roundup
Issued by NWS Central Illinois

Home | Current Version | Previous Version | Text Only | Print | Product List | Glossary On
Versions: 1 2 3 4 5 6 7 8 9 10 11 12 13 14 15 16 17 18 19 20 21 22 23 24 25 26 27 28 29 30 31 32 33 34 35 36 37 38 39 40 41 42 43 44 45 46 47 48 49 50
000
NZUS43 KILX 221410
HWRILX

AREA WEATHER ROUNDUP
NATIONAL WEATHER SERVICE, LINCOLN IL
800 AM CST MON DEC 22 2014


CITY           SKY/WX    TMP DP  RH WIND       PRES   REMARKS
BLOOMINGTON    LGT RAIN  34  31  89 SE15      29.85F WCI  24
CHAMPAIGN      LGT RAIN  34  30  85 E14       29.87F FOG     WCI  25
DECATUR        LGT RAIN  34  32  92 E9        29.85F FOG     WCI  27
FLORA          LGT RAIN  37  35  91 E8        29.87F WCI  31
GALESBURG      CLOUDY    36  32  87 E10G16    29.77F WCI  28
JACKSONVILLE   LGT RAIN  38  36  92 E13       29.77F WCI  30
LACON          CLOUDY    34  29  83 E7        29.83F WCI  28
LAWRENCEVILLE  MIX PCPN  37  34  89 E6        29.92R FOG     WCI  32
LITCHFIELD     LGT RAIN  37  34  91 SE12      29.78F WCI  29
$$


CITY           SKY/WX    TMP DP  RH WIND       PRES   REMARKS
LINCOLN        LGT RAIN  35  33  90 SE6       29.84F WCI  30
MACOMB         CLOUDY    37  33  85 SE13      29.79F WCI  28
MATTOON        LGT RAIN  35  31  85 SE12      29.87R WCI  27
MT CARMEL AP   DRIZZLE   37  34  87 E6        29.91R WCI  33
OLNEY-NOBLE AP LGT RAIN  36  34  93 E6        29.89F WCI  31
PARIS          CLOUDY    34  31  90 E6        29.90F WCI  29
PEORIA         LGT RAIN  37  30  75 SE10      29.82F WCI  30
PONTIAC        CLOUDY    33  32  94 E13       29.87F FOG     WCI  24
RANTOUL        CLOUDY    35  32  87 SE10      29.88F WCI  27
ROBINSON       LGT RAIN  37  32  84 SE8       29.92S WCI  30
SPRINGFIELD    LGT RAIN  36  33  89 SE13      29.81F FOG     WCI  27
TAYLORVILLE    LGT RAIN  34  32  93 SE13      29.81F WCI  25
$$

...REGIONAL REPORTS...


CITY           SKY/WX    TMP DP  RH WIND       PRES   REMARKS
CHICAGO O`HARE CLOUDY    32  27  81 SE10      29.91F WCI  24
KANKAKEE       CLOUDY    32  29  89 E10       29.91F WCI  24
MOLINE         CLOUDY    36  32  85 E10       29.78F FOG     WCI  28
MOUNT VERNON   CLOUDY    37  30  75 E6        29.85F WCI  33
PITTSFIELD     RAIN      38  37  93 E9        29.75F WCI  32
QUINCY         LGT RAIN  38  34  85 SE14      29.71F FOG     WCI  30
ROCKFORD       CLOUDY    33  29  85 SE10      29.88F FOG     WCI  25
$$


CITY           SKY/WX    TMP DP  RH WIND       PRES   REMARKS
BURLINGTON     LGT RAIN  38  32  79 SE12      29.73F WCI  30
CEDAR RAPIDS   CLOUDY    37  33  85 SE10      29.72F WCI  30
DES MOINES     CLOUDY    40  36  86 SE14      29.64F WCI  32
KIRKSVILLE     LGT RAIN  39  36  89 SE10      29.67F WCI  32
OTTUMWA        CLOUDY    39  34  82 SE13      29.68F WCI  31
ST LOUIS       LGT RAIN  41  37  87 SE14      29.75F FOG     WCI  33
$$


CITY           SKY/WX    TMP DP  RH WIND       PRES   REMARKS
TERRE HAUTE    CLOUDY    36  30  79 SE7       29.92S WCI  30
EVANSVILLE     CLOUDY    43  37  79 E5        29.91F
INDIANAPOLIS   CLOUDY    33  28  81 E10       29.93F WCI  25
LAFAYETTE      CLOUDY    33  28  81 E9        29.92F WCI  25
MADISON        CLOUDY    34  29  82 SE10      29.85F HAZE    WCI  26
MILWAUKEE      MOCLDY    36  30  79 SE10      29.93F HAZE    WCI  28
$$




USA.gov is the U.S. government's official web portal to all federal, state and local government web resources and services.